Location: Juniper Campground
(35.7953°N, 106.2814°W)
Time: 22:28:43
(UTC-07:00)

Envisat - Pass Details

Date: 26 August 2018
Orbit: 764 x 766 km, 98.2° (Epoch: 17 November)

Event Time Altitude Azimuth Distance (km) Brightness Sun altitude
Rises 21:12:35 0° 199° (SSW) 3,208 6.1 -18.3°
Reaches altitude 10° 21:15:21 10° 215° (SW) 2,287 5.5 -18.8°
Maximum altitude 21:19:14 22° 265° (W) 1,607 5.3 -19.5°
Drops below altitude 10° 21:23:09 10° 316° (NW) 2,299 6.6 -20.2°
Sets 21:25:57 0° 332° (NNW) 3,230 7.2 -20.7°
